,,PA_Meas_PMT16A,,PR_Meas_QMR101_102,,RH_Meas_QMH101,,SR_Meas_QMS101,,TA_Meas_QMH101,,GenWind,,GenWind,
time,status,PA,status,PR,status,RH,status,SR,status,TA,status,DirAvg,status,SpdAvg,
2013-04-12, 00:00:04,VALID,916.601,VALID,0,VALID,91.1913,VALID,0,VALID,18.9424,VALID,136,VALID,0,
2013-04-12, 00:01:04,VALID,916.59,VALID,0,VALID,91.0846,VALID,0,VALID,19.0023,VALID,128,VALID,0,
2013-04-12, 00:02:04,VALID,916.572,VALID,0,VALID,91.2066,VALID,0,VALID,18.9828,VALID,125,VALID,0,
2013-04-12, 00:03:04,VALID,916.557,VALID,0,VALID,91.5725,VALID,0,VALID,18.9633,VALID,138,VALID,0,
2013-04-12, 00:04:04,VALID,916.486,VALID,0,VALID,92.1061,VALID,0,VALID,18.9438,VALID,135,VALID,0,
2013-04-12, 00:05:04,VALID,916.489,VALID,0,VALID,92.3806,VALID,0,VALID,18.8449,VALID,135,VALID,0,
2013-04-12, 00:06:04,VALID,916.471,VALID,0,VALID,92.6855,VALID,0,VALID,18.8463,VALID,137,VALID,0,
2013-04-12, 00:07:04,VALID,916.441,VALID,0,VALID,92.8151,VALID,0,VALID,18.7669,VALID,142,VALID,0,
2013-04-12, 00:08:04,VALID,916.454,VALID,0,VALID,93.1124,VALID,0,VALID,18.7279,VALID,129,VALID,0,
2013-04-12, 00:09:04,VALID,916.42,VALID,0,VALID,93.4936,VALID,0,VALID,18.7293,VALID,144,VALID,0,
2013-04-12, 00:10:04,VALID,916.46,VALID,0,VALID,93.7909,VALID,0,VALID,18.6694,VALID,127,VALID,0,
2013-04-12, 00:11:05,VALID,916.442,VALID,0,VALID,93.9967,VALID,0,VALID,18.6513,VALID,126,VALID,0,
2013-04-12, 00:12:05,VALID,916.412,VALID,0,VALID,94.0958,VALID,0,VALID,18.6319,VALID,135,VALID,0,
2013-04-12, 00:13:05,VALID,916.43,VALID,0,VALID,94.0882,VALID,0,VALID,18.6723,VALID,127,VALID,0,
2013-04-12, 00:14:05,VALID,916.418,VALID,0,VALID,93.9815,VALID,0,VALID,18.6708,VALID,143,VALID,0,
2013-04-12, 00:15:05,VALID,916.422,VALID,0,VALID,93.768,VALID,0,VALID,18.7098,VALID,140,VALID,0,
2013-04-12, 00:16:05,VALID,916.38,VALID,0,VALID,93.4707,VALID,0,VALID,18.7892,VALID,164,VALID,0,
2013-04-12, 00:17:05,VALID,916.362,VALID,0,VALID,93.0438,VALID,0,VALID,18.8463,VALID,158,VALID,0,
2013-04-12, 00:18:05,VALID,916.363,VALID,0,VALID,92.5406,VALID,0,VALID,18.9438,VALID,160,VALID,0,
2013-04-12, 00:19:05,VALID,916.354,VALID,0,VALID,92.2433,VALID,0,VALID,19.0023,VALID,161,VALID,0,
2013-04-12, 00:20:05,VALID,916.362,VALID,0,VALID,91.9613,VALID,0,VALID,19.0203,VALID,162,VALID,0,
2013-04-12, 00:21:05,VALID,916.329,VALID,0,VALID,91.7402,VALID,0,VALID,19.0803,VALID,148,VALID,0,
2013-04-12, 00:22:05,VALID,916.333,VALID,0,VALID,91.4581,VALID,0,VALID,19.0998,VALID,159,VALID,0,
2013-04-12, 00:23:05,VALID,916.347,VALID,0,VALID,91.2447,VALID,0,VALID,19.1597,VALID,175,VALID,0,
2013-04-12, 00:24:05,VALID,916.321,VALID,0,VALID,90.9931,VALID,0,VALID,19.1778,VALID,164,VALID,0,
2013-04-12, 00:25:05,VALID,916.326,VALID,0,VALID,90.8025,VALID,0,VALID,19.2168,VALID,172,VALID,0,
2013-04-12, 00:26:05,VALID,916.347,VALID,0,VALID,90.5738,VALID,0,VALID,19.2558,VALID,173,VALID,0,
2013-04-12, 00:27:05,VALID,916.344,VALID,0,VALID,90.3985,VALID,0,VALID,19.2753,VALID,170,VALID,0,
2013-04-12, 00:28:05,VALID,916.345,VALID,0,VALID,90.2308,VALID,0,VALID,19.2948,VALID,172,VALID,0,
2013-04-12, 00:29:05,VALID,916.334,VALID,0,VALID,90.0859,VALID,0,VALID,19.2948,VALID,175,VALID,0,
2013-04-12, 00:30:05,VALID,916.311,VALID,0,VALID,89.7657,VALID,0,VALID,19.3338,VALID,179,VALID,0,
2013-04-12, 00:31:05,VALID,916.319,VALID,0,VALID,89.3388,VALID,0,VALID,19.3923,VALID,187,VALID,0,
2013-04-12, 00:32:05,VALID,916.312,VALID,0,VALID,89.1025,VALID,0,VALID,19.4313,VALID,173,VALID,0,
2013-04-12, 00:33:05,VALID,916.281,VALID,0,VALID,88.7518,VALID,0,VALID,19.4508,VALID,178,VALID,0,
2013-04-12, 00:34:05,VALID,916.268,VALID,0,VALID,88.7289,VALID,0,VALID,19.4493,VALID,173,VALID,0,
2013-04-12, 00:35:05,VALID,916.284,VALID,0,VALID,88.7289,VALID,0,VALID,19.4313,VALID,170,VALID,0,
2013-04-12, 00:36:05,VALID,916.285,VALID,0,VALID,88.8052,VALID,0,VALID,19.4313,VALID,176,VALID,0,
2013-04-12, 00:37:05,VALID,916.22,VALID,0,VALID,88.8433,VALID,0,VALID,19.4118,VALID,171,VALID,0,
2013-04-12, 00:38:05,VALID,916.195,VALID,0,VALID,88.7518,VALID,0,VALID,19.4313,VALID,168,VALID,0,
2013-04-12, 00:39:05,VALID,916.208,VALID,0,VALID,88.828,VALID,0,VALID,19.4118,VALID,175,VALID,0,
2013-04-12, 00:40:05,VALID,916.218,VALID,0,VALID,88.9043,VALID,0,VALID,19.3923,VALID,167,VALID,0,
2013-04-12, 00:41:05,VALID,916.204,VALID,0,VALID,88.8738,VALID,0,VALID,19.4132,VALID,172,VALID,0,
2013-04-12, 00:42:05,VALID,916.199,VALID,0,VALID,89.0567,VALID,0,VALID,19.3518,VALID,160,VALID,0,
2013-04-12, 00:43:05,VALID,916.186,VALID,0,VALID,88.9119,VALID,0,VALID,19.3323,VALID,152,VALID,0,
2013-04-12, 00:44:05,VALID,916.178,VALID,0,VALID,89.0491,VALID,0,VALID,19.3338,VALID,162,VALID,0,
2013-04-12, 00:45:05,VALID,916.145,VALID,0,VALID,88.9958,VALID,0,VALID,19.3143,VALID,162,VALID,0,
2013-04-12, 00:46:05,VALID,916.12,VALID,0,VALID,88.9195,VALID,0,VALID,19.2738,VALID,162,VALID,0,
2013-04-12, 00:47:05,VALID,916.132,VALID,0,VALID,88.7899,VALID,0,VALID,19.2543,VALID,162,VALID,0,
2013-04-12, 00:48:05,VALID,916.121,VALID,0,VALID,88.7442,VALID,0,VALID,19.2558,VALID,162,VALID,0,
2013-04-12, 00:49:05,VALID,916.15,VALID,0,VALID,88.8433,VALID,0,VALID,19.1958,VALID,161,VALID,0,
2013-04-12, 00:50:05,VALID,916.107,VALID,0,VALID,88.8585,VALID,0,VALID,19.2168,VALID,164,VALID,0,
2013-04-12, 00:51:05,VALID,916.085,VALID,0,VALID,88.7366,VALID,0,VALID,19.1763,VALID,152,VALID,0,
2013-04-12, 00:52:05,VALID,916.06,VALID,0,VALID,88.7671,VALID,0,VALID,19.1778,VALID,149,VALID,0,
2013-04-12, 00:53:05,VALID,916.047,VALID,0,VALID,88.8585,VALID,0,VALID,19.1388,VALID,158,VALID,0,
2013-04-12, 00:54:05,VALID,916.018,VALID,0,VALID,89.0339,VALID,0,VALID,19.1388,VALID,162,VALID,0,
2013-04-12, 00:55:05,VALID,916.018,VALID,0,VALID,88.9729,VALID,0,VALID,19.1388,VALID,162,VALID,0,
2013-04-12, 00:56:05,VALID,915.99,VALID,0,VALID,88.9805,VALID,0,VALID,19.0983,VALID,161,VALID,0,
2013-04-12, 00:57:05,VALID,915.971,VALID,0,VALID,89.1025,VALID,0,VALID,19.0593,VALID,158,VALID,0,
2013-04-12, 00:58:05,VALID,915.987,VALID,0,VALID,89.1177,VALID,0,VALID,19.0413,VALID,158,VALID,0,
2013-04-12, 00:59:05,VALID,915.967,VALID,0,VALID,89.2168,VALID,0,VALID,19.0232,VALID,158,VALID,0,
2013-04-12, 01:00:05,VALID,915.961,VALID,0,VALID,89.2626,VALID,0,VALID,18.9633,VALID,157,VALID,0,
2013-04-12, 01:01:05,VALID,915.942,VALID,0,VALID,89.5294,VALID,0,VALID,18.9048,VALID,127,VALID,0,
2013-04-12, 01:02:05,VALID,915.975,VALID,0,VALID,89.7962,VALID,0,VALID,18.7878,VALID,127,VALID,0,
2013-04-12, 01:03:05,VALID,915.939,VALID,0,VALID,90.4442,VALID,0,VALID,18.7098,VALID,127,VALID,0,
2013-04-12, 01:04:05,VALID,915.936,VALID,0,VALID,91.1303,VALID,0,VALID,18.6319,VALID,82,VALID,0,
2013-04-12, 01:05:05,VALID,915.94,VALID,0,VALID,91.5801,VALID,0,VALID,18.572,VALID,82,VALID,0,
2013-04-12, 01:06:05,VALID,915.923,VALID,0,VALID,91.8317,VALID,0,VALID,18.5525,VALID,82,VALID,0,
2013-04-12, 01:07:05,VALID,915.92,VALID,0,VALID,91.8927,VALID,0,VALID,18.494,VALID,82,VALID,0,
2013-04-12, 01:08:05,VALID,915.938,VALID,0,VALID,92.1976,VALID,0,VALID,18.4745,VALID,82,VALID,0,
2013-04-12, 01:09:05,VALID,915.928,VALID,0,VALID,92.5635,VALID,0,VALID,18.4773,VALID,82,VALID,0,
2013-04-12, 01:10:05,VALID,915.908,VALID,0,VALID,92.777,VALID,0,VALID,18.4369,VALID,82,VALID,0,
2013-04-12, 01:11:05,VALID,915.927,VALID,0,VALID,93.0209,VALID,0,VALID,18.416,VALID,82,VALID,0,
2013-04-12, 01:12:05,VALID,915.914,VALID,0,VALID,93.0057,VALID,0,VALID,18.4174,VALID,82,VALID,0,
2013-04-12, 01:13:05,VALID,915.962,VALID,0,VALID,93.0285,VALID,0,VALID,18.4188,VALID,83,VALID,0,
2013-04-12, 01:14:05,VALID,915.952,VALID,0,VALID,93.12,VALID,0,VALID,18.377,VALID,82,VALID,0,
2013-04-12, 01:15:05,VALID,915.96,VALID,0,VALID,93.12,VALID,0,VALID,18.3784,VALID,96,VALID,0,
2013-04-12, 01:16:05,VALID,915.952,VALID,0,VALID,93.1886,VALID,0,VALID,18.3589,VALID,96,VALID,0,
2013-04-12, 01:17:05,VALID,915.94,VALID,0,VALID,93.3945,VALID,0,VALID,18.3199,VALID,97,VALID,0,
2013-04-12, 01:18:05,VALID,915.929,VALID,0,VALID,93.7299,VALID,0,VALID,18.299,VALID,97,VALID,0,
2013-04-12, 01:19:05,VALID,915.89,VALID,0,VALID,93.8366,VALID,0,VALID,18.3004,VALID,97,VALID,0,
2013-04-12, 01:20:05,VALID,915.857,VALID,0,VALID,93.89,VALID,0,VALID,18.2601,VALID,100,VALID,0,
2013-04-12, 01:21:05,VALID,915.817,VALID,0,VALID,93.7604,VALID,0,VALID,18.2406,VALID,96,VALID,0,
2013-04-12, 01:22:05,VALID,915.821,VALID,0,VALID,93.7223,VALID,0,VALID,18.2615,VALID,111,VALID,0,
2013-04-12, 01:23:05,VALID,915.783,VALID,0,VALID,93.5088,VALID,0,VALID,18.3199,VALID,123,VALID,0,
2013-04-12, 01:24:05,VALID,915.769,VALID,0,VALID,93.1048,VALID,0,VALID,18.3993,VALID,112,VALID,0,
2013-04-12, 01:25:05,VALID,915.761,VALID,0,VALID,92.7007,VALID,0,VALID,18.416,VALID,134,VALID,0,
2013-04-12, 01:26:05,VALID,915.751,VALID,0,VALID,92.251,VALID,0,VALID,18.5539,VALID,134,VALID,0,
2013-04-12, 01:27:05,VALID,915.728,VALID,0,VALID,91.7326,VALID,0,VALID,18.6319,VALID,139,VALID,0,
2013-04-12, 01:28:05,VALID,915.712,VALID,0,VALID,91.4048,VALID,0,VALID,18.6708,VALID,121,VALID,0,
2013-04-12, 01:29:05,VALID,915.716,VALID,0,VALID,91.3057,VALID,0,VALID,18.6708,VALID,126,VALID,0,
2013-04-12, 01:30:05,VALID,915.71,VALID,0,VALID,91.2066,VALID,0,VALID,18.6903,VALID,123,VALID,0,
2013-04-12, 01:31:05,VALID,915.725,VALID,0,VALID,91.1227,VALID,0,VALID,18.6903,VALID,119,VALID,0,
2013-04-12, 01:32:05,VALID,915.683,VALID,0,VALID,91.1151,VALID,0,VALID,18.6903,VALID,115,VALID,0,
2013-04-12, 01:33:05,VALID,915.658,VALID,0,VALID,91.2066,VALID,0,VALID,18.7098,VALID,115,VALID,0,
2013-04-12, 01:34:05,VALID,915.672,VALID,0,VALID,91.1379,VALID,0,VALID,18.7293,VALID,148,VALID,0,
2013-04-12, 01:35:05,VALID,915.667,VALID,0,VALID,91.0236,VALID,0,VALID,18.7683,VALID,155,VALID,0,
2013-04-12, 01:36:05,VALID,915.622,VALID,0,VALID,90.955,VALID,0,VALID,18.8087,VALID,154,VALID,0,
2013-04-12, 01:37:05,VALID,915.638,VALID,0,VALID,90.8635,VALID,0,VALID,18.8282,VALID,170,VALID,0,
2013-04-12, 01:38:05,VALID,915.67,VALID,0,VALID,90.8787,VALID,0,VALID,18.8073,VALID,166,VALID,0,
2013-04-12, 01:39:05,VALID,915.636,VALID,0,VALID,90.8406,VALID,0,VALID,18.8282,VALID,175,VALID,0,
2013-04-12, 01:40:05,VALID,915.636,VALID,0,VALID,90.8406,VALID,0,VALID,18.8268,VALID,154,VALID,0,
2013-04-12, 01:41:05,VALID,915.612,VALID,0,VALID,90.7263,VALID,0,VALID,18.8268,VALID,150,VALID,0,
2013-04-12, 01:42:05,VALID,915.551,VALID,0,VALID,90.6653,VALID,0,VALID,18.8268,VALID,133,VALID,0,
2013-04-12, 01:43:05,VALID,915.573,VALID,0,VALID,90.6043,VALID,0,VALID,18.8463,VALID,129,VALID,0,
2013-04-12, 01:44:05,VALID,915.541,VALID,0,VALID,90.3222,VALID,0,VALID,18.8449,VALID,127,VALID,0,
2013-04-12, 01:45:05,VALID,915.541,VALID,0,VALID,90.2155,VALID,0,VALID,18.8644,VALID,132,VALID,0,
2013-04-12, 01:46:05,VALID,915.557,VALID,0,VALID,90.0478,VALID,0,VALID,18.8853,VALID,132,VALID,0,
2013-04-12, 01:47:05,VALID,915.536,VALID,0,VALID,89.9182,VALID,0,VALID,18.8853,VALID,132,VALID,0,
2013-04-12, 01:48:05,VALID,915.5,VALID,0,VALID,90.1164,VALID,0,VALID,18.8853,VALID,132,VALID,0,
2013-04-12, 01:49:05,VALID,915.496,VALID,0,VALID,90.2689,VALID,0,VALID,18.8867,VALID,139,VALID,0,
2013-04-12, 01:50:05,VALID,915.502,VALID,0,VALID,90.3908,VALID,0,VALID,18.8463,VALID,150,VALID,0,
2013-04-12, 01:51:05,VALID,915.483,VALID,0,VALID,90.4595,VALID,0,VALID,18.8449,VALID,151,VALID,0,
2013-04-12, 01:52:05,VALID,915.456,VALID,0,VALID,90.4976,VALID,0,VALID,18.8658,VALID,161,VALID,0,
2013-04-12, 01:53:05,VALID,915.459,VALID,0,VALID,90.5357,VALID,0,VALID,18.8463,VALID,166,VALID,0,
2013-04-12, 01:54:05,VALID,915.456,VALID,0,VALID,90.6348,VALID,0,VALID,18.8268,VALID,166,VALID,0,
2013-04-12, 01:55:05,VALID,915.446,VALID,0,VALID,90.772,VALID,0,VALID,18.8073,VALID,166,VALID,0,
2013-04-12, 01:56:05,VALID,915.462,VALID,0,VALID,90.9016,VALID,0,VALID,18.7878,VALID,172,VALID,0,
2013-04-12, 01:57:05,VALID,915.441,VALID,0,VALID,90.9702,VALID,0.107441,VALID,18.7655,VALID,170,VALID,0,
2013-04-12, 01:58:05,VALID,915.428,VALID,0,VALID,90.8864,VALID,0,VALID,18.7878,VALID,170,VALID,0,
2013-04-12, 01:59:05,VALID,915.41,VALID,0,VALID,90.8711,VALID,0,VALID,18.7683,VALID,170,VALID,0,
2013-04-12, 02:00:05,VALID,915.403,VALID,0,VALID,90.8787,VALID,0.107441,VALID,18.7878,VALID,168,VALID,0,
2013-04-12, 02:01:05,VALID,915.387,VALID,0,VALID,90.8864,VALID,0,VALID,18.7864,VALID,168,VALID,0,
2013-04-12, 02:02:05,VALID,915.364,VALID,0,VALID,90.8025,VALID,0,VALID,18.7864,VALID,168,VALID,0,
2013-04-12, 02:03:05,VALID,915.377,VALID,0,VALID,90.6424,VALID,0,VALID,18.8268,VALID,168,VALID,0,
2013-04-12, 02:04:05,VALID,915.348,VALID,0,VALID,90.4595,VALID,0,VALID,18.8449,VALID,168,VALID,0,
2013-04-12, 02:05:05,VALID,915.349,VALID,0,VALID,90.3756,VALID,0,VALID,18.8658,VALID,168,VALID,0,
2013-04-12, 02:06:05,VALID,915.352,VALID,0,VALID,90.1926,VALID,0,VALID,18.8644,VALID,168,VALID,0,
2013-04-12, 02:07:05,VALID,915.349,VALID,0,VALID,89.9944,VALID,0.107441,VALID,18.8644,VALID,168,VALID,0,
2013-04-12, 02:08:05,VALID,915.343,VALID,0,VALID,90.2079,VALID,0,VALID,18.8059,VALID,168,VALID,0,
2013-04-12, 02:09:05,VALID,915.356,VALID,0,VALID,90.3222,VALID,0,VALID,18.7864,VALID,168,VALID,0,
2013-04-12, 02:10:05,VALID,915.346,VALID,0,VALID,90.3908,VALID,0.107441,VALID,18.8059,VALID,146,VALID,0,
2013-04-12, 02:11:05,VALID,915.37,VALID,0,VALID,90.429,VALID,0.107441,VALID,18.8254,VALID,168,VALID,0,
2013-04-12, 02:12:05,VALID,915.352,VALID,0,VALID,90.3604,VALID,0,VALID,18.8658,VALID,162,VALID,0,
2013-04-12, 02:13:05,VALID,915.346,VALID,0,VALID,90.2536,VALID,0,VALID,18.8853,VALID,165,VALID,0,
2013-04-12, 02:14:05,VALID,915.309,VALID,0,VALID,90.2003,VALID,0,VALID,18.9048,VALID,171,VALID,0,
2013-04-12, 02:15:05,VALID,915.276,VALID,0,VALID,90.2231,VALID,0,VALID,18.9243,VALID,195,VALID,0,
2013-04-12, 02:16:05,VALID,915.268,VALID,0,VALID,90.124,VALID,0,VALID,18.9243,VALID,161,VALID,0,
2013-04-12, 02:17:05,VALID,915.272,VALID,0,VALID,90.1698,VALID,0,VALID,18.9048,VALID,164,VALID,0,
2013-04-12, 02:18:05,VALID,915.257,VALID,0,VALID,90.1621,VALID,0,VALID,18.9048,VALID,182,VALID,0,
2013-04-12, 02:19:05,VALID,915.251,VALID,0,VALID,90.1088,VALID,0,VALID,18.9048,VALID,160,VALID,0,
2013-04-12, 02:20:05,VALID,915.26,VALID,0,VALID,89.6666,VALID,0,VALID,18.9424,VALID,174,VALID,0,
2013-04-12, 02:21:05,VALID,915.278,VALID,0,VALID,89.3541,VALID,0,VALID,19.0218,VALID,171,VALID,0,
2013-04-12, 02:22:05,VALID,915.249,VALID,0,VALID,89.0034,VALID,0,VALID,19.0608,VALID,168,VALID,0,
2013-04-12, 02:23:05,VALID,915.257,VALID,0,VALID,88.6756,VALID,0,VALID,19.0998,VALID,176,VALID,0,
2013-04-12, 02:24:05,VALID,915.213,VALID,0,VALID,88.4545,VALID,0,VALID,19.1193,VALID,170,VALID,0,
2013-04-12, 02:25:05,VALID,915.234,VALID,0,VALID,88.2563,VALID,0,VALID,19.1583,VALID,178,VALID,0,
2013-04-12, 02:26:05,VALID,915.277,VALID,0,VALID,88.1191,VALID,0,VALID,19.1778,VALID,178,VALID,0,
2013-04-12, 02:27:05,VALID,915.291,VALID,0,VALID,87.9209,VALID,0,VALID,19.1987,VALID,173,VALID,0,
2013-04-12, 02:28:05,VALID,915.297,VALID,0,VALID,87.8065,VALID,0,VALID,19.2182,VALID,181,VALID,0,
2013-04-12, 02:29:05,VALID,915.297,VALID,0,VALID,87.6998,VALID,0,VALID,19.2168,VALID,183,VALID,0,
2013-04-12, 02:30:05,VALID,915.227,VALID,0,VALID,87.6464,VALID,0,VALID,19.1973,VALID,162,VALID,0,
2013-04-12, 02:31:05,VALID,915.245,VALID,0,VALID,87.5473,VALID,0,VALID,19.1973,VALID,173,VALID,0,
2013-04-12, 02:32:05,VALID,915.242,VALID,0,VALID,87.4558,VALID,0,VALID,19.1763,VALID,168,VALID,0,
2013-04-12, 02:33:05,VALID,915.181,VALID,0,VALID,87.2957,VALID,0,VALID,19.2168,VALID,165,VALID,0,
2013-04-12, 02:34:05,VALID,915.165,VALID,0,VALID,87.2119,VALID,0,VALID,19.1958,VALID,173,VALID,0,
2013-04-12, 02:35:05,VALID,915.183,VALID,0,VALID,87.1738,VALID,0,VALID,19.2153,VALID,175,VALID,0,
2013-04-12, 02:36:05,VALID,915.154,VALID,0,VALID,87.2729,VALID,0,VALID,19.2348,VALID,129,VALID,0,
2013-04-12, 02:37:05,VALID,915.175,VALID,0,VALID,87.1814,VALID,0,VALID,19.2363,VALID,168,VALID,0,
2013-04-12, 02:38:05,VALID,915.169,VALID,0,VALID,87.3567,VALID,0,VALID,19.2377,VALID,132,VALID,0,
2013-04-12, 02:39:05,VALID,915.14,VALID,0,VALID,87.4177,VALID,0,VALID,19.1778,VALID,160,VALID,0,
2013-04-12, 02:40:05,VALID,915.137,VALID,0,VALID,87.433,VALID,0,VALID,19.1583,VALID,161,VALID,0,
2013-04-12, 02:41:05,VALID,915.107,VALID,0,VALID,87.7379,VALID,0,VALID,19.1388,VALID,160,VALID,0,
2013-04-12, 02:42:05,VALID,915.091,VALID,0,VALID,87.6617,VALID,0,VALID,19.1388,VALID,178,VALID,0,
2013-04-12, 02:43:05,VALID,915.091,VALID,0,VALID,87.7379,VALID,0,VALID,19.0983,VALID,175,VALID,0,
2013-04-12, 02:44:05,VALID,915.068,VALID,0,VALID,87.8599,VALID,0,VALID,19.0998,VALID,170,VALID,0,
2013-04-12, 02:45:05,VALID,915.061,VALID,0,VALID,87.5778,VALID,0,VALID,19.1193,VALID,162,VALID,0,
2013-04-12, 02:46:05,VALID,915.027,VALID,0,VALID,87.5092,VALID,0,VALID,19.1388,VALID,161,VALID,0,
2013-04-12, 02:47:05,VALID,915.011,VALID,0,VALID,87.6083,VALID,0,VALID,19.0983,VALID,161,VALID,0,
2013-04-12, 02:48:05,VALID,915.044,VALID,0,VALID,87.6464,VALID,0,VALID,19.1193,VALID,161,VALID,0,
2013-04-12, 02:49:05,VALID,915.005,VALID,0,VALID,87.6083,VALID,0,VALID,19.0788,VALID,165,VALID,0,
2013-04-12, 02:50:05,VALID,915,VALID,0,VALID,87.6845,VALID,0,VALID,19.0803,VALID,173,VALID,0,
2013-04-12, 02:51:05,VALID,914.995,VALID,0,VALID,87.9132,VALID,0,VALID,19.0593,VALID,168,VALID,0,
2013-04-12, 02:52:04,VALID,914.984,VALID,0,VALID,88.0047,VALID,0,VALID,19.0203,VALID,157,VALID,0,
2013-04-12, 02:53:04,VALID,914.988,VALID,0,VALID,87.837,VALID,0,VALID,19.0203,VALID,157,VALID,0,
2013-04-12, 02:54:04,VALID,914.961,VALID,0,VALID,87.9818,VALID,0,VALID,19.0218,VALID,157,VALID,0,
2013-04-12, 02:55:04,VALID,914.98,VALID,0,VALID,88.0276,VALID,0,VALID,19.0008,VALID,164,VALID,0,
2013-04-12, 02:56:04,VALID,914.997,VALID,0,VALID,87.9513,VALID,0,VALID,19.0008,VALID,160,VALID,0,
2013-04-12, 02:57:04,VALID,914.969,VALID,0,VALID,87.8522,VALID,0,VALID,19.0203,VALID,172,VALID,0,
2013-04-12, 02:58:04,VALID,914.977,VALID,0,VALID,87.6998,VALID,0,VALID,19.0803,VALID,175,VALID,0,
2013-04-12, 02:59:04,VALID,914.953,VALID,0,VALID,87.6769,VALID,0,VALID,19.0998,VALID,173,VALID,0,
2013-04-12, 03:00:04,VALID,914.94,VALID,0,VALID,87.7226,VALID,0,VALID,19.0788,VALID,172,VALID,0,
2013-04-12, 03:01:04,VALID,914.948,VALID,0,VALID,87.715,VALID,0,VALID,19.0593,VALID,172,VALID,0,
2013-04-12, 03:02:04,VALID,914.929,VALID,0,VALID,87.7989,VALID,0,VALID,19.0608,VALID,173,VALID,0,
2013-04-12, 03:03:04,VALID,914.933,VALID,0,VALID,87.8751,VALID,0,VALID,19.0398,VALID,173,VALID,0,
2013-04-12, 03:04:04,VALID,914.955,VALID,0,VALID,88.0276,VALID,0,VALID,19.0398,VALID,163,VALID,0,
2013-04-12, 03:05:04,VALID,914.928,VALID,0,VALID,88.0505,VALID,0,VALID,19.0218,VALID,167,VALID,0,
2013-04-12, 03:06:04,VALID,914.925,VALID,0,VALID,88.1724,VALID,0,VALID,19.0427,VALID,167,VALID,0,
2013-04-12, 03:07:04,VALID,914.923,VALID,0,VALID,88.2029,VALID,0,VALID,19.0427,VALID,168,VALID,0,
2013-04-12, 03:08:04,VALID,914.954,VALID,0,VALID,88.1114,VALID,0,VALID,19.0413,VALID,172,VALID,0,
2013-04-12, 03:09:04,VALID,914.92,VALID,0,VALID,87.9361,VALID,0,VALID,19.0788,VALID,171,VALID,0,
2013-04-12, 03:10:04,VALID,914.928,VALID,0,VALID,87.7074,VALID,0,VALID,19.1597,VALID,166,VALID,0,
2013-04-12, 03:11:04,VALID,914.921,VALID,0,VALID,87.6617,VALID,0,VALID,19.1193,VALID,163,VALID,0,
2013-04-12, 03:12:04,VALID,914.917,VALID,0,VALID,87.6464,VALID,0.107441,VALID,19.1178,VALID,153,VALID,0,
2013-04-12, 03:13:04,VALID,914.918,VALID,0,VALID,87.6693,VALID,0.107441,VALID,19.1178,VALID,159,VALID,0,
2013-04-12, 03:14:04,VALID,914.907,VALID,0,VALID,87.3948,VALID,0.107441,VALID,19.1568,VALID,133,VALID,0,
2013-04-12, 03:15:04,VALID,914.913,VALID,0,VALID,87.189,VALID,0.107441,VALID,19.1958,VALID,172,VALID,0,
2013-04-12, 03:16:04,VALID,914.906,VALID,0,VALID,87.0442,VALID,0.107441,VALID,19.1958,VALID,154,VALID,0,
2013-04-12, 03:17:04,VALID,914.847,VALID,0,VALID,87.0823,VALID,0.107441,VALID,19.1958,VALID,154,VALID,0,
2013-04-12, 03:18:04,VALID,914.88,VALID,0,VALID,87.1738,VALID,0.107441,VALID,19.1749,VALID,156,VALID,0,
2013-04-12, 03:19:04,VALID,914.878,VALID,0,VALID,87.2729,VALID,0.107441,VALID,19.1749,VALID,163,VALID,0,
2013-04-12, 03:20:04,VALID,914.866,VALID,0,VALID,87.3567,VALID,0,VALID,19.1568,VALID,166,VALID,0,
2013-04-12, 03:21:04,VALID,914.87,VALID,0,VALID,87.4025,VALID,0.107441,VALID,19.1568,VALID,166,VALID,0,
2013-04-12, 03:22:04,VALID,914.865,VALID,0,VALID,87.3796,VALID,0,VALID,19.1373,VALID,141,VALID,0,
2013-04-12, 03:23:04,VALID,914.874,VALID,0,VALID,87.4863,VALID,0.107441,VALID,19.1178,VALID,119,VALID,0,
2013-04-12, 03:24:04,VALID,914.863,VALID,0,VALID,87.7074,VALID,0.107441,VALID,19.1178,VALID,119,VALID,0,
2013-04-12, 03:25:04,VALID,914.819,VALID,0,VALID,87.7226,VALID,0.107441,VALID,19.1178,VALID,132,VALID,0,
2013-04-12, 03:26:04,VALID,914.831,VALID,0,VALID,87.4558,VALID,0,VALID,19.1763,VALID,131,VALID,0,
2013-04-12, 03:27:04,VALID,914.807,VALID,0,VALID,87.2652,VALID,0,VALID,19.2168,VALID,130,VALID,0,
2013-04-12, 03:28:04,VALID,914.771,VALID,0,VALID,87.1509,VALID,0,VALID,19.2558,VALID,136,VALID,0,
2013-04-12, 03:29:04,VALID,914.773,VALID,0,VALID,87.0442,VALID,0,VALID,19.2558,VALID,129,VALID,0,
2013-04-12, 03:30:04,VALID,914.798,VALID,0,VALID,87.0213,VALID,0,VALID,19.2558,VALID,129,VALID,0,
2013-04-12, 03:31:04,VALID,914.748,VALID,0,VALID,87.25,VALID,0,VALID,19.2168,VALID,129,VALID,0,
2013-04-12, 03:32:04,VALID,914.77,VALID,0,VALID,87.3872,VALID,0,VALID,19.1973,VALID,133,VALID,0,
2013-04-12, 03:33:04,VALID,914.768,VALID,0,VALID,87.5168,VALID,0,VALID,19.1583,VALID,133,VALID,0,
2013-04-12, 03:34:04,VALID,914.739,VALID,0,VALID,87.6693,VALID,0,VALID,19.0998,VALID,133,VALID,0,
2013-04-12, 03:35:04,VALID,914.745,VALID,0,VALID,87.959,VALID,0,VALID,19.0413,VALID,133,VALID,0,
2013-04-12, 03:36:04,VALID,914.74,VALID,0,VALID,88.3097,VALID,0,VALID,18.9243,VALID,133,VALID,0,
2013-04-12, 03:37:04,VALID,914.72,VALID,0,VALID,89.2245,VALID,0,VALID,18.8059,VALID,131,VALID,0,
2013-04-12, 03:38:04,VALID,914.725,VALID,0,VALID,89.6819,VALID,0,VALID,18.7683,VALID,130,VALID,0,
2013-04-12, 03:39:04,VALID,914.71,VALID,0,VALID,89.842,VALID,0,VALID,18.7488,VALID,130,VALID,0,
2013-04-12, 03:40:04,VALID,914.709,VALID,0,VALID,89.9106,VALID,0,VALID,18.7683,VALID,129,VALID,0,
2013-04-12, 03:41:04,VALID,914.732,VALID,0,VALID,89.9258,VALID,0,VALID,18.7892,VALID,129,VALID,0,
2013-04-12, 03:42:04,VALID,914.78,VALID,0,VALID,89.9563,VALID,0,VALID,18.7669,VALID,129,VALID,0,
2013-04-12, 03:43:04,VALID,914.795,VALID,0,VALID,89.8725,VALID,0,VALID,18.7878,VALID,129,VALID,0,
2013-04-12, 03:44:04,VALID,914.785,VALID,0,VALID,89.8496,VALID,0,VALID,18.8658,VALID,129,VALID,0,
2013-04-12, 03:45:04,VALID,914.75,VALID,0,VALID,89.6209,VALID,0,VALID,18.9048,VALID,130,VALID,0,
2013-04-12, 03:46:04,VALID,914.743,VALID,0,VALID,89.3464,VALID,0,VALID,18.9034,VALID,132,VALID,0,
2013-04-12, 03:47:04,VALID,914.718,VALID,0,VALID,89.3312,VALID,0,VALID,18.9633,VALID,141,VALID,0,
2013-04-12, 03:48:04,VALID,914.745,VALID,0,VALID,89.1787,VALID,0,VALID,19.0023,VALID,136,VALID,0,
2013-04-12, 03:49:04,VALID,914.731,VALID,0,VALID,89.1177,VALID,0,VALID,19.0413,VALID,134,VALID,0,
2013-04-12, 03:50:04,VALID,914.747,VALID,0,VALID,88.9805,VALID,0,VALID,19.0608,VALID,134,VALID,0,
2013-04-12, 03:51:04,VALID,914.741,VALID,0,VALID,88.9576,VALID,0,VALID,19.0398,VALID,134,VALID,0,
2013-04-12, 03:52:04,VALID,914.758,VALID,0,VALID,88.8814,VALID,0,VALID,19.0413,VALID,134,VALID,0,
2013-04-12, 03:53:04,VALID,914.741,VALID,0,VALID,88.8662,VALID,0,VALID,19.0218,VALID,135,VALID,0,
2013-04-12, 03:54:04,VALID,914.725,VALID,0,VALID,88.9653,VALID,0,VALID,18.9828,VALID,135,VALID,0,
2013-04-12, 03:55:04,VALID,914.71,VALID,0,VALID,89.2092,VALID,0,VALID,18.9633,VALID,131,VALID,0,
2013-04-12, 03:56:04,VALID,914.726,VALID,0,VALID,89.4532,VALID,0,VALID,18.9243,VALID,132,VALID,0,
2013-04-12, 03:57:04,VALID,914.716,VALID,0,VALID,89.7352,VALID,0,VALID,18.9257,VALID,132,VALID,0,
2013-04-12, 03:58:04,VALID,914.738,VALID,0,VALID,90.1088,VALID,0,VALID,18.9048,VALID,132,VALID,0,
2013-04-12, 03:59:04,VALID,914.722,VALID,0,VALID,89.9716,VALID,0,VALID,18.9062,VALID,132,VALID,0,